Location: Corralito
(10.2667°N, 66.9500°W)
Time: 08:45:04
(UTC+00:00)

Haruka - Pass Details

Date: 06 December 2023
Orbit: 529 x 21179 km, 31.2° (Epoch: 24 February)

Event Time Altitude Azimuth Distance (km) Brightness Sun altitude
Rises 19:04:23 0° 303° (WNW) 7,058 8.1 37.9°
Reaches altitude 10° 19:07:20 10° 304° (NW) 6,840 8.1 37.3°
Maximum altitude 19:51:02 87° 45° (NE) 12,228 9.5 28.6°
Drops below altitude 10° 00:10:26 10° 138° (SE) 13,285 9.1 -29.6°
Sets 00:19:48 0° 133° (SE) 12,325 8.9 -31.7°
